Location: Unspecified
(0.0000°N, 0.0000°E)
Time: 14:29:50
(UTC+00:00)

ISS - Pass Details

Date: 04 February 2013
Orbit: 402 x 404 km, 51.6° (Epoch: 30 May)

Event Time Altitude Azimuth Distance (km) Brightness Sun altitude
Rises 19:32:43 0° 272° (W) 2,308 1.8 -18.9°
Enters shadow 19:39:12 -1° 346° (NNW) 2,401 0.6 -20.4°
Exits shadow 20:12:43 -65° 65° (ENE) 12,008 4.1 -28.4°
Maximum altitude 05:35:31 34° 54° (NE) 731 -1.6 -9.2°
